K5UTC Weather Reports


time (UTC)temp
C
wind
direction
speed
KPH
gust
KPH
rain 1hr
cm
rain 24hr
cm
rain mn
cm
humidity
%
barometer
mb
20260504081806 13 150 0.0 1.6 0.00 0.00 0.00 66 1014.6
20260504081302 13 124 1.6 1.6 0.00 0.00 0.00 70 1014.6
20260504080759 13 160 0.0 0.0 0.00 0.00 0.00 71 1014.7
20260504080255 13 132 0.0 1.6 0.00 0.00 0.00 71 1014.7
20260504070223 12 152 0.0 0.0 0.00 0.00 0.00 74 1015.0
20260504060143 11 149 0.0 0.0 0.00 0.00 0.00 81 1015.7
20260504050611 9 152 0.0 0.0 0.00 0.00 0.00 85 1016.0
20260504050108 9 141 0.0 0.0 0.00 0.00 0.00 86 1015.9
20260504045605 9 155 0.0 0.0 0.00 0.00 0.00 86 1016.0
20260504045100 10 144 0.0 0.0 0.00 0.00 0.00 86 1016.0
20260504044558 10 146 0.0 0.0 0.00 0.00 0.00 85 1016.1
20260504044055 10 135 0.0 0.0 0.00 0.00 0.00 86 1016.1
20260504043552 10 141 0.0 0.0 0.00 0.00 0.00 86 1016.1
20260504043049 10 143 0.0 0.0 0.00 0.00 0.00 86 1016.1
20260504042546 10 142 0.0 0.0 0.00 0.00 0.00 86 1016.0
20260504042043 10 149 0.0 0.0 0.00 0.00 0.00 86 1016.1
20260504041539 10 143 0.0 0.0 0.00 0.00 0.00 87 1016.1
20260504041035 10 139 0.0 0.0 0.00 0.00 0.00 86 1016.0
20260504040533 10 144 0.0 0.0 0.00 0.00 0.00 86 1016.2
20260504040029 10 147 0.0 0.0 0.00 0.00 0.00 84 1016.0
20260504035526 10 145 0.0 0.0 0.00 0.00 0.00 84 1016.2
20260504035023 10 141 0.0 0.0 0.00 0.00 0.00 85 1016.1
20260504034521 10 144 0.0 0.0 0.00 0.00 0.00 85 1016.2
20260504034017 10 141 0.0 0.0 0.00 0.00 0.00 85 1016.2
20260504033515 10 140 0.0 0.0 0.00 0.00 0.00 84 1016.2
20260504033012 10 142 0.0 0.0 0.00 0.00 0.00 84 1016.0
20260504032509 10 145 0.0 0.0 0.00 0.00 0.00 84 1016.2
20260504032006 10 145 0.0 0.0 0.00 0.00 0.00 84 1016.3
20260504031502 10 145 0.0 0.0 0.00 0.00 0.00 83 1016.3
20260504030959 10 143 0.0 0.0 0.00 0.00 0.00 83 1016.3
20260504030456 10 145 0.0 0.0 0.00 0.00 0.00 81 1016.2
20260504025952 10 147 0.0 0.0 0.00 0.00 0.00 80 1016.3
20260504025449 10 143 0.0 0.0 0.00 0.00 0.00 82 1016.4
20260504024946 10 151 0.0 0.0 0.00 0.00 0.00 82 1016.4
20260504024443 11 147 0.0 0.0 0.00 0.00 0.00 81 1016.5
20260504023940 11 148 0.0 0.0 0.00 0.00 0.00 80 1016.4
20260504023437 10 146 0.0 0.0 0.00 0.00 0.00 82 1016.5
20260504022932 11 146 0.0 0.0 0.00 0.00 0.00 83 1016.5
20260504022429 11 146 0.0 0.0 0.00 0.00 0.00 81 1016.4
20260504021925 11 146 0.0 0.0 0.00 0.00 0.00 79 1016.3
20260504021423 11 145 0.0 0.0 0.00 0.00 0.00 79 1016.6
20260504020920 11 146 0.0 0.0 0.00 0.00 0.00 79 1016.3
20260504020417 11 146 0.0 0.0 0.00 0.00 0.00 79 1016.3
20260504015913 11 146 0.0 0.0 0.00 0.00 0.00 81 1016.2
20260504015409 11 146 0.0 0.0 0.00 0.00 0.00 83 1016.1
20260504014905 11 145 0.0 0.0 0.00 0.00 0.00 83 1016.0
20260504014401 11 144 0.0 0.0 0.00 0.00 0.00 81 1015.8
20260504013858 12 144 0.0 0.0 0.00 0.00 0.00 77 1016.0
20260504013357 12 142 0.0 0.0 0.00 0.00 0.00 77 1016.1
20260504012853 12 146 0.0 0.0 0.00 0.00 0.00 78 1016.1
20260504012351 12 146 0.0 0.0 0.00 0.00 0.00 75 1016.1
20260504011848 12 146 0.0 0.0 0.00 0.00 0.00 76 1016.0
20260504011344 13 146 0.0 0.0 0.00 0.00 0.00 75 1016.0
20260504010841 13 147 0.0 0.0 0.00 0.00 0.00 76 1015.8
20260504010336 13 146 0.0 0.0 0.00 0.00 0.00 73 1015.9
20260504005833 13 146 0.0 1.6 0.00 0.00 0.00 72 1015.7
20260504005330 13 147 0.0 0.0 0.00 0.00 0.00 73 1015.8
20260504004827 14 147 0.0 0.0 0.00 0.00 0.00 71 1015.7
20260504004325 15 148 0.0 0.0 0.00 0.00 0.00 69 1015.5
20260504003821 15 148 0.0 0.0 0.00 0.00 0.00 68 1015.7
20260504003318 15 148 0.0 0.0 0.00 0.00 0.00 66 1015.5
20260504002815 15 147 0.0 0.0 0.00 0.00 0.00 65 1015.6
20260504002312 16 145 0.0 0.0 0.00 0.00 0.00 64 1015.7
20260504001810 16 145 0.0 0.0 0.00 0.00 0.00 63 1015.6
20260504001307 16 150 0.0 0.0 0.00 0.00 0.00 61 1015.7
20260504000803 17 152 0.0 0.0 0.00 0.00 0.00 59 1015.6
20260504000300 17 146 0.0 0.0 0.00 0.00 0.00 57 1015.6
20260503235758 17 145 0.0 0.0 0.00 0.00 0.00 55 1015.8
20260503235255 17 148 0.0 0.0 0.00 0.00 0.00 53 1015.6
20260503234753 17 144 0.0 0.0 0.00 0.00 0.00 52 1015.9
20260503234251 18 153 0.0 0.0 0.00 0.00 0.00 55 1015.9
20260503233748 18 149 0.0 0.0 0.00 0.00 0.00 51 1015.7
20260503233243 18 154 0.0 0.0 0.00 0.00 0.00 50 1015.9
20260503232741 18 146 0.0 0.0 0.00 0.00 0.00 50 1016.0
20260503232238 18 123 1.6 1.6 0.00 0.00 0.00 49 1016.1
20260503231736 18 155 0.0 1.6 0.00 0.00 0.00 50 1016.1
20260503231232 19 152 0.0 0.0 0.00 0.00 0.00 46 1016.2
20260503230728 19 148 0.0 0.0 0.00 0.00 0.00 46 1016.1
20260503230226 20 158 1.6 1.6 0.00 0.00 0.00 47 1016.2
20260503225723 20 146 0.0 0.0 0.00 0.00 0.00 43 1016.3
20260503225223 20 151 0.0 1.6 0.00 0.00 0.00 43 1016.2
20260503224721 20 171 1.6 1.6 0.00 0.00 0.00 45 1016.2
20260503224218 20 166 0.0 0.0 0.00 0.00 0.00 42 1016.3
20260503223716 21 152 0.0 1.6 0.00 0.00 0.00 42 1016.4
20260503223213 22 203 0.0 1.6 0.00 0.00 0.00 42 1016.4
20260503222709 22 157 1.6 1.6 0.00 0.00 0.00 38 1016.3
20260503222207 23 163 1.6 1.6 0.00 0.00 0.00 39 1016.5
20260503221706 23 163 0.0 0.0 0.00 0.00 0.00 38 1016.6
20260503221203 23 173 1.6 1.6 0.00 0.00 0.00 37 1016.5
20260503220659 22 162 0.0 1.6 0.00 0.00 0.00 36 1016.4
20260503220156 22 215 1.6 1.6 0.00 0.00 0.00 37 1016.4
20260503215653 22 139 1.6 1.6 0.00 0.00 0.00 40 1016.5
20260503215149 23 247 1.6 1.6 0.00 0.00 0.00 39 1016.5
20260503214649 23 153 0.0 0.0 0.00 0.00 0.00 42 1016.4
20260503214144 22 77 6.4 11.3 0.00 0.00 0.00 36 1016.6
20260503213643 22 148 1.6 1.6 0.00 0.00 0.00 36 1016.7
20260503213140 22 197 3.2 3.2 0.00 0.00 0.00 40 1016.7
20260503212637 23 64 4.8 4.8 0.00 0.00 0.00 38 1016.8
20260503212134 22 160 0.0 0.0 0.00 0.00 0.00 41 1016.8
20260503211633 22 116 1.6 1.6 0.00 0.00 0.00 36 1017.0
20260503211133 22 186 1.6 3.2 0.00 0.00 0.00 35 1017.1
20260503210629 23 235 3.2 4.8 0.00 0.00 0.00 34 1017.0
20260503210126 23 153 0.0 0.0 0.00 0.00 0.00 35 1017.0
20260503205622 23 176 1.6 1.6 0.00 0.00 0.00 37 1017.1
20260503205118 23 202 1.6 3.2 0.00 0.00 0.00 35 1017.1
20260503204615 23 232 3.2 4.8 0.00 0.00 0.00 38 1017.2
20260503204113 23 155 1.6 3.2 0.00 0.00 0.00 39 1017.3
20260503203610 22 192 1.6 1.6 0.00 0.00 0.00 43 1017.5
20260503203107 23 208 1.6 1.6 0.00 0.00 0.00 41 1017.5
20260503202604 23 229 1.6 1.6 0.00 0.00 0.00 40 1017.7
20260503202102 23 124 1.6 1.6 0.00 0.00 0.00 37 1017.6
20260503201600 22 215 1.6 3.2 0.00 0.00 0.00 41 1017.9
20260503201057 22 111 3.2 4.8 0.00 0.00 0.00 38 1017.9
20260503200553 22 163 0.0 1.6 0.00 0.00 0.00 44 1017.9
20260503200050 22 96 1.6 3.2 0.00 0.00 0.00 43 1017.9
20260503195547 21 174 3.2 4.8 0.00 0.00 0.00 46 1018.3
20260503195044 21 144 0.0 1.6 0.00 0.00 0.00 39 1018.5
20260503194541 22 163 0.0 1.6 0.00 0.00 0.00 41 1018.3
20260503194041 21 153 1.6 1.6 0.00 0.00 0.00 47 1018.5
20260503193538 21 173 1.6 3.2 0.00 0.00 0.00 44 1018.5
20260503193033 21 100 3.2 4.8 0.00 0.00 0.00 39 1018.7
20260503192530 21 173 1.6 1.6 0.00 0.00 0.00 42 1018.7
20260503192026 21 112 3.2 3.2 0.00 0.00 0.00 44 1018.8
20260503191522 22 220 6.4 9.7 0.00 0.00 0.00 39 1018.9
20260503191019 21 166 1.6 3.2 0.00 0.00 0.00 39 1019.0
20260503190516 21 312 3.2 3.2 0.00 0.00 0.00 41 1019.0
20260503190014 21 110 1.6 3.2 0.00 0.00 0.00 42 1019.0
20260503185510 21 170 1.6 1.6 0.00 0.00 0.00 45 1019.2
20260503185009 22 181 0.0 0.0 0.00 0.00 0.00 37 1019.0
20260503184506 22 184 1.6 1.6 0.00 0.00 0.00 45 1019.2
20260503184002 21 195 0.0 1.6 0.00 0.00 0.00 49 1019.3
20260503183459 20 128 1.6 1.6 0.00 0.00 0.00 46 1019.4
20260503182956 21 173 1.6 3.2 0.00 0.00 0.00 52 1019.3
20260503182455 21 265 4.8 4.8 0.00 0.00 0.00 39 1019.3
20260503181952 20 167 1.6 1.6 0.00 0.00 0.00 42 1019.5
20260503181449 21 2 4.8 4.8 0.00 0.00 0.00 41 1019.3
20260503180945 21 169 4.8 6.4 0.00 0.00 0.00 38 1019.4
20260503180443 21 184 1.6 1.6 0.00 0.00 0.00 47 1019.7
20260503175940 20 270 1.6 3.2 0.00 0.00 0.00 45 1019.4
20260503175438 20 80 1.6 3.2 0.00 0.00 0.00 46 1019.7
20260503174939 20 178 1.6 1.6 0.00 0.00 0.00 41 1019.6
20260503174437 21 240 1.6 3.2 0.00 0.00 0.00 48 1019.9
20260503173932 21 183 1.6 1.6 0.00 0.00 0.00 43 1019.8
20260503173428 20 245 1.6 3.2 0.00 0.00 0.00 45 1019.9
20260503172925 20 150 1.6 1.6 0.00 0.00 0.00 46 1019.9
20260503172423 20 173 1.6 1.6 0.00 0.00 0.00 40 1020.0
20260503171918 19 97 1.6 3.2 0.00 0.00 0.00 40 1020.2
20260503171415 20 176 3.2 4.8 0.00 0.00 0.00 43 1020.2
20260503170913 20 194 1.6 1.6 0.00 0.00 0.00 46 1020.3
20260503170409 19 182 0.0 3.2 0.00 0.00 0.00 50 1020.4
20260503150801 15 132 1.6 1.6 0.00 0.00 0.00 52 1020.9
20260503150257 16 319 6.4 6.4 0.00 0.00 0.00 50 1020.9
20260503140222 15 88 1.6 3.2 0.00 0.00 0.00 66 1020.8
20260503131151 13 119 0.0 0.0 0.00 0.00 0.00 78 1020.9
20260503130649 12 112 1.6 1.6 0.00 0.00 0.00 79 1020.5
20260503130146 12 102 0.0 1.6 0.00 0.00 0.00 81 1020.5
20260503120112 10 143 0.0 0.0 0.00 0.00 0.00 98 1020.2
20260503110539 5 145 0.0 0.0 0.00 0.00 0.00 98 1019.7
20260503090426 6 143 0.0 0.0 0.00 0.00 0.00 98 1019.2